Location: *
(37.9500°N, 27.3666°E)
Time: 05:14:23
(UTC+00:00)

Okean-O - Pass Details

Date: 24 October 2021
Orbit: 639 x 640 km, 98.2° (Epoch: 03 December)

Event Time Altitude Azimuth Distance (km) Brightness Sun altitude
Exits shadow 16:25:10 16° 56° (NE) 1,656 4.2 -13.3°
Drops below altitude 10° 16:27:21 10° 27° (NNE) 2,038 4.9 -13.7°
Sets 16:30:14 0° 7° (N) 2,952 5.9 -14.3°
